Location: ??????
(56.0120°N, 39.1740°E)
Time: 01:57:17
(UTC+00:00)

Spot 4 - Pass Details

Date: 14 April 2026
Orbit: 698 x 714 km, 98.2° (Epoch: 20 May)

Event Time Altitude Azimuth Distance (km) Brightness Sun altitude
Exits shadow 20:32:20 70° 187° (S) 747 3.7 -23.5°
Maximum altitude 20:32:51 82° 253° (WSW) 713 3.7 -23.5°
Drops below altitude 10° 20:37:38 10° 343° (NNW) 2,175 7.4 -23.6°
Sets 20:39:54 0° 344° (NNW) 3,098 8.6 -23.7°
